Regional Weather Roundup
Issued by NWS

Home | Current Version | Previous Version | Graphics & Text | Print | Product List | Glossary On
Versions: 1 2 3 4 5 6 7 8 9 10 11 12 13 14 15 16 17 18 19 20 21 22 23 24 25 26 27 28 29 30 31 32 33 34 35 36 37 38 39 40 41 42 43 44 45 46 47 48 49 50
000
ASUS43 KBIS 292302
RWRND

NORTH DAKOTA REGIONAL WEATHER ROUNDUP
NATIONAL WEATHER SERVICE BISMARCK ND
600 PM CDT WED JUL 29 2015

NOTE: "FAIR" INDICATES FEW OR NO CLOUDS BELOW 12,000 FEET WITH NO
SIGNIFICANT WEATHER AND/OR OBSTRUCTIONS TO VISIBILITY.


NDZ001>003-009>011-017-300000-
NORTHWEST NORTH DAKOTA

CITY           SKY/WX    TMP DP  RH WIND       PRES   REMARKS
WILLISTON      MOSUNNY   83  43  24 NW21G30   30.05S
MINOT          SUNNY     81  48  31 W21G31    29.97S
MINOT AFB      SUNNY     82  49  31 NW21G31   29.96S
$$

NDZ018>021-031>035-040>046-300000-
SOUTHWEST NORTH DAKOTA

CITY           SKY/WX    TMP DP  RH WIND       PRES   REMARKS
BISMARCK       MOSUNNY   83  46  27 W16G23    30.04S
DICKINSON      MOSUNNY   80  44  27 NW18G25   30.08F
GARRISON         N/A     79  48  33 W16G23    30.02S
HETTINGER ARPT SUNNY     81  38  21 NW22      30.13F
$$

NDZ004>008-012>016-024-026-027-054-300000-
NORTHEAST NORTH DAKOTA

CITY           SKY/WX    TMP DP  RH WIND       PRES   REMARKS
GRAND FORKS    MOSUNNY   81  53  37 W26G40    29.84R
GRND FRKS AFB  SUNNY     80  53  39 NW21G38   29.86R
DEVILS LAKE    MOSUNNY   81  54  39 NW24G35   29.90S
$$

NDZ022-023-025-028>030-036>039-047>053-300000-
SOUTHEAST NORTH DAKOTA

CITY           SKY/WX    TMP DP  RH WIND       PRES   REMARKS
FARGO          MOSUNNY   82  55  39 W25G31    29.90F
JAMESTOWN      PTSUNNY   79  52  38 NW21G30   29.97S
$$




USA.gov is the U.S. government's official web portal to all federal, state and local government web resources and services.